Regional Weather Roundup
Issued by NWS

Home | Current Version | Previous Version | Text Only | Print | Product List | Glossary Off
Versions: 1 2 3 4 5 6 7 8 9 10 11 12 13 14 15 16 17 18 19 20 21 22 23 24 25 26 27 28 29 30 31 32 33 34 35 36 37 38 39 40 41 42 43 44 45 46 47 48 49 50

000
ASUS43 KBIS 161102
RWRND

NORTH DAKOTA REGIONAL WEATHER ROUNDUP
NATIONAL WEATHER SERVICE BISMARCK ND
500 AM CST MON JAN 16 2017

NOTE: "FAIR" INDICATES FEW OR NO CLOUDS BELOW 12,000 FEET WITH NO
SIGNIFICANT WEATHER AND/OR OBSTRUCTIONS TO VISIBILITY.


NDZ001>003-009>011-017-161200-
NORTHWEST NORTH DAKOTA

CITY           SKY/WX    TMP DP  RH WIND       PRES   REMARKS
WILLISTON      FAIR      11   6  81 NW8       30.07R WCI  -1
MINOT          FAIR      16   8  71 SW12      30.00R WCI   3
$$

NDZ018>021-031>035-040>046-161200-
SOUTHWEST NORTH DAKOTA

CITY           SKY/WX    TMP DP  RH WIND       PRES   REMARKS
BISMARCK       FAIR      -7 -12  79 CALM      30.07R
DICKINSON      FAIR      15   6  67 W14       30.00F WCI   0
GARRISON         N/A     13   5  70 W9        30.01S WCI   1
HETTINGER ARPT CLOUDY    12   4  70 NW6       30.05F WCI   3
$$

NDZ004>008-012>016-024-026-027-054-161200-
NORTHEAST NORTH DAKOTA

CITY           SKY/WX    TMP DP  RH WIND       PRES   REMARKS
GRAND FORKS    CLOUDY     5  -1  76 S7        30.03F WCI  -7
GRND FRKS AFB  CLOUDY     5  -1  76 W7        30.02F WCI  -7
DEVILS LAKE    FAIR      10   4  76 SW10      29.98F WCI  -4
$$

NDZ022-023-025-028>030-036>039-047>053-161200-
SOUTHEAST NORTH DAKOTA

CITY           SKY/WX    TMP DP  RH WIND       PRES   REMARKS
FARGO          CLOUDY    11   8  88 S8        30.07F WCI  -1
JAMESTOWN      FAIR      14   5  67 NW5       30.04R WCI   6
$$





USA.gov is the U.S. government's official web portal to all federal, state and local government web resources and services.